Location: Shenandoah County Park
(38.9356°N, 78.4524°W)
Time: 11:26:55
(UTC-04:00)

Vanguard 1 - Pass Details

Date: 09 February 2023
Orbit: 649 x 3831 km, 34.3° (Epoch: 19 March)

Event Time Altitude Azimuth Distance (km) Brightness Sun altitude
Exits shadow 03:41:40 32° 113° (ESE) 1,819 11.6 -41.2°
Drops below altitude 10° 03:46:56 10° 90° (E) 3,609 13.6 -40.2°
Sets 03:51:08 0° 85° (E) 5,110 14.6 -39.4°
